Estación Meteorológica de la Universidad de Murcia
Estación Meteorológica de la Universidad de Murcia
Universidad de Murcia
 

Humedad relativaHumedad relativa

 

Máxima: 84,6 % a las 02:41:00 del día 24/07/2021
Mínima: 16,5 % a las 13:20:00 del día 24/07/2021

||Humedad máxima últimos meses|| ---- ||Humedad mínima últimos meses||


Humedad máxima

  • 1 - 84,6 % del día 24/07/2021
  • 2 - 86,5 % del día 23/07/2021
  • 3 - 86,5 % del día 22/07/2021
  • 4 - 86,5 % del día 21/07/2021
  • 5 - 86,5 % del día 20/07/2021
  • 6 - 86,5 % del día 19/07/2021
  • 7 - 86,5 % del día 18/07/2021
  • 8 - 86,5 % del día 17/07/2021
  • 9 - 86,5 % del día 16/07/2021
  • 10 - 86,5 % del día 15/07/2021
  • 11 - 70,3 % del día 14/07/2021
  • 12 - 66,8 % del día 13/07/2021
  • 13 - 86,5 % del día 12/07/2021
  • 14 - 86,5 % del día 11/07/2021
  • 15 - 86,5 % del día 10/07/2021
  • 16 - 86,5 % del día 09/07/2021
  • 17 - 86,5 % del día 08/07/2021
  • 18 - 86,5 % del día 07/07/2021
  • 19 - 86,5 % del día 06/07/2021
  • 20 - 86,5 % del día 05/07/2021
  • 21 - 86,5 % del día 04/07/2021
  • 22 - 86,5 % del día 03/07/2021
  • 23 - 86,5 % del día 02/07/2021
  • 24 - 86,5 % del día 01/07/2021
  • 25 - 86,5 % del día 30/06/2021
  • 26 - 86,5 % del día 29/06/2021
  • 27 - 84 % del día 28/06/2021
  • 28 - 86,5 % del día 27/06/2021
  • 29 - 86,5 % del día 26/06/2021
  • 30 - 86,5 % del día 25/06/2021
  • 31 - 86,5 % del día 24/06/2021
  • 32 - 86,5 % del día 23/06/2021
  • 33 - 67,4 % del día 22/06/2021
  • 34 - 86 % del día 21/06/2021
  • 35 - 86,5 % del día 20/06/2021
  • 36 - 86,5 % del día 19/06/2021
  • 37 - 86,5 % del día 18/06/2021
  • 38 - 86,5 % del día 17/06/2021
  • 39 - 80,8 % del día 16/06/2021
  • 40 - 72,9 % del día 15/06/2021
  • 41 - 74,8 % del día 14/06/2021
  • 42 - 74,5 % del día 13/06/2021
  • 43 - 77,7 % del día 12/06/2021
  • 44 - 86,5 % del día 11/06/2021
  • 45 - 86,5 % del día 10/06/2021
  • 46 - 86,5 % del día 09/06/2021
  • 47 - 86,5 % del día 08/06/2021
  • 48 - 86,5 % del día 07/06/2021
  • 49 - 86,5 % del día 06/06/2021
  • 50 - 86,5 % del día 05/06/2021
  • 51 - 86,5 % del día 04/06/2021
  • 52 - 86,5 % del día 03/06/2021
  • 53 - 86,5 % del día 02/06/2021
  • 54 - 86,5 % del día 01/06/2021
  • 55 - 86 % del día 31/05/2021
  • 56 - 86,5 % del día 30/05/2021
  • 57 - 86,5 % del día 29/05/2021
  • 58 - 86,5 % del día 28/05/2021
  • 59 - 86,5 % del día 27/05/2021

||Volver al inicio de la página||


Humedad mínima

  • 1 - 16,5 % del día 24/07/2021
  • 2 - 22,3 % del día 23/07/2021
  • 3 - 18,7 % del día 22/07/2021
  • 4 - 24,5 % del día 21/07/2021
  • 5 - 29,7 % del día 20/07/2021
  • 6 - 31,6 % del día 19/07/2021
  • 7 - 28,2 % del día 18/07/2021
  • 8 - 26,1 % del día 17/07/2021
  • 9 - 33 % del día 16/07/2021
  • 10 - 34,4 % del día 15/07/2021
  • 11 - 36 % del día 14/07/2021
  • 12 - 8,9 % del día 13/07/2021
  • 13 - 2,7 % del día 12/07/2021
  • 14 - 39 % del día 11/07/2021
  • 15 - 20,1 % del día 10/07/2021
  • 16 - 40,7 % del día 09/07/2021
  • 17 - 37,2 % del día 08/07/2021
  • 18 - 32,7 % del día 07/07/2021
  • 19 - 16,9 % del día 06/07/2021
  • 20 - 40,3 % del día 05/07/2021
  • 21 - 15,2 % del día 04/07/2021
  • 22 - 14,1 % del día 03/07/2021
  • 23 - 34,4 % del día 02/07/2021
  • 24 - 34,5 % del día 01/07/2021
  • 25 - 41 % del día 30/06/2021
  • 26 - 41,5 % del día 29/06/2021
  • 27 - 19,3 % del día 28/06/2021
  • 28 - 24,5 % del día 27/06/2021
  • 29 - 21,3 % del día 26/06/2021
  • 30 - 32,4 % del día 25/06/2021
  • 31 - 36,4 % del día 24/06/2021
  • 32 - 38,6 % del día 23/06/2021
  • 33 - 23,5 % del día 22/06/2021
  • 34 - 27,6 % del día 21/06/2021
  • 35 - 24,9 % del día 20/06/2021
  • 36 - 57,1 % del día 19/06/2021
  • 37 - 39,9 % del día 18/06/2021
  • 38 - 31,9 % del día 17/06/2021
  • 39 - 32,7 % del día 16/06/2021
  • 40 - 26,8 % del día 15/06/2021
  • 41 - 23,6 % del día 14/06/2021
  • 42 - 26,4 % del día 13/06/2021
  • 43 - 28,5 % del día 12/06/2021
  • 44 - 28,9 % del día 11/06/2021
  • 45 - 27,6 % del día 10/06/2021
  • 46 - 27,7 % del día 09/06/2021
  • 47 - 35,6 % del día 08/06/2021
  • 48 - 41,6 % del día 07/06/2021
  • 49 - 35,6 % del día 06/06/2021
  • 50 - 57,9 % del día 05/06/2021
  • 51 - 47,2 % del día 04/06/2021
  • 52 - 50,6 % del día 03/06/2021
  • 53 - 40,8 % del día 02/06/2021
  • 54 - 47 % del día 01/06/2021
  • 55 - 33,7 % del día 31/05/2021
  • 56 - 26,2 % del día 30/05/2021
  • 57 - 31,5 % del día 29/05/2021
  • 58 - 45,5 % del día 28/05/2021
  • 59 - 35,2 % del día 27/05/2021

 

|| Temperatura Ambiente|| Velocidad y dirección del viento|| Precipitación|| Radiación Solar Global y PAR|| Temperatura y humedad del suelo|| Presión atmosférica|| Más información|| Volver a la página principal|| Volver al inicio de la página||


Estación Meteorológica de la Universidad de Murcia
http://estacion.um.es/
Informacion actualizada a: 26/07/2021 a las 03:32:00